Petersburg, WV

1:07 PM EST on January 19, 2018 (GMT -0500)
Petersburg

Weather History for KW99 - February, 2013

Change the Weather History Date:

Sunday, February 3, 2013

  Actual Average (KEKN) Record (KEKN)
Temperature  
Mean Temperature 32 °F -  
Max Temperature 37 °F 40 °F 63 °F (2016)
Min Temperature 27 °F 17 °F -13 °F (1905)
Degree Days  
Heating Degree Days 33    
Moisture  
Dew Point 21 °F    
Average Humidity 67    
Maximum Humidity 90    
Minimum Humidity 48    
Precipitation  
Precipitation 0.00 in - - ()
Sea Level Pressure  
Sea Level Pressure 29.89 in    
Wind  
Wind Speed 4 mph (West)    
Max Wind Speed 24 mph    
Max Gust Speed 39 mph    
Visibility 9 miles    
Events Snow    
Averages and records for this station are not official NWS values.
T = Trace of Precipitation, MM = Missing Value Source: NWS Daily Summary

Daily Weather History Graph

Daily Weather History Graph

Search for Another Location

Airport or City:

Trip Planner

Search our weather history database for the weather conditions in past years. The results will help you decide how hot, cold, wet, or windy it might be!

Date:

Astronomy

Feb. 03, 2013 Rise Set
Actual Time 7:20 AM EST 5:40 PM EST
Civil Twilight 6:52 AM EST 6:08 PM EST
Nautical Twilight 6:21 AM EST 6:40 PM EST
Astronomical Twilight 5:49 AM EST 7:11 PM EST
Moon 12:46 AM EST (2/3) 11:16 AM EST (2/3)
Length of Visible Light 11h 15m
Length of Day
10h 19m
Waning Gibbous, 49% of the Moon is Illuminated
Feb 3
Waning Gibbous
Feb 10
New
Feb 17
First Quarter
Feb 25
Full
Mar 4
Last Quarter

Hourly Weather History & Observations

Time (EST) Temp. Windchill Dew Point Humidity Pressure Visibility Wind Dir Wind Speed Gust Speed Precip Events Conditions
12:15 AM 27.3 °F - 24.6 °F 90% 29.96 in 10.0 mi Calm Calm - N/A   Overcast
12:35 AM 27.5 °F - 24.8 °F 90% 29.96 in 10.0 mi Calm Calm - N/A   Overcast
12:55 AM 28.2 °F - 25.5 °F 90% 29.95 in 10.0 mi Calm Calm - N/A   Overcast
1:15 AM 28.8 °F - 26.1 °F 90% 29.94 in 10.0 mi Calm Calm - N/A   Overcast
1:35 AM 28.9 °F - 25.9 °F 88% 29.94 in 10.0 mi Calm Calm - N/A   Overcast
1:55 AM 28.8 °F - 25.5 °F 88% 29.93 in 7.0 mi Calm Calm - N/A Snow Light Snow
2:15 AM 29.3 °F - 26.1 °F 88% 29.93 in 7.0 mi Calm Calm - N/A Snow Light Snow
2:35 AM 29.8 °F - 26.8 °F 88% 29.92 in 10.0 mi Calm Calm - N/A   Overcast
2:55 AM 29.8 °F - 26.8 °F 88% 29.92 in 10.0 mi Calm Calm - N/A Snow Light Snow
3:15 AM 30.0 °F - 27.0 °F 88% 29.91 in 7.0 mi Calm Calm - N/A Snow Light Snow
3:35 AM 30.0 °F - 27.0 °F 88% 29.90 in 7.0 mi Calm Calm - N/A Snow Light Snow
3:55 AM 30.0 °F - 27.0 °F 88% 29.89 in 10.0 mi Calm Calm - N/A   Overcast
4:15 AM 29.8 °F - 27.0 °F 89% 29.89 in 7.0 mi Calm Calm - N/A Snow Light Snow
4:55 AM 29.5 °F - 26.8 °F 90% 29.88 in 7.0 mi Calm Calm - N/A Snow Light Snow
5:15 AM 29.3 °F - 26.4 °F 89% 29.88 in 7.0 mi Calm Calm - N/A Snow Light Snow
5:35 AM 28.9 °F - 26.1 °F 89% 29.88 in 7.0 mi Calm Calm - N/A Snow Light Snow
5:55 AM 28.8 °F - 25.9 °F 89% 29.88 in 10.0 mi Calm Calm - N/A   Overcast
6:15 AM 28.6 °F - 25.5 °F 88% 29.88 in 10.0 mi Calm Calm - N/A Snow Light Snow
6:35 AM 28.4 °F - 25.5 °F 89% 29.88 in 10.0 mi Calm Calm - N/A   Overcast
6:55 AM 28.6 °F - 25.3 °F 88% 29.88 in 10.0 mi Calm Calm - N/A   Overcast
7:15 AM 28.6 °F - 25.3 °F 88% 29.88 in 7.0 mi Calm Calm - N/A Snow Light Snow
7:35 AM 28.4 °F - 25.2 °F 88% 29.89 in 10.0 mi Calm Calm - N/A   Overcast
7:55 AM 28.6 °F - 25.3 °F 88% 29.89 in 7.0 mi Calm Calm - N/A   Overcast
8:15 AM 29.3 °F - 25.9 °F 87% 29.89 in 7.0 mi Calm Calm - N/A Snow Light Snow
8:35 AM 29.8 °F - 26.6 °F 88% 29.89 in 7.0 mi Calm Calm - N/A   Overcast
8:55 AM 31.1 °F - 27.1 °F 85% 29.89 in 10.0 mi Calm Calm - N/A   Overcast
9:15 AM 32.0 °F - 27.5 °F 83% 29.89 in 7.0 mi Calm Calm - N/A Snow Light Snow
9:35 AM 32.0 °F 21.2 °F 25.3 °F 76% 29.89 in 10.0 mi West 16.1 mph 19.6 mph N/A   Mostly Cloudy
9:55 AM 32.9 °F - 18.1 °F 55% 29.89 in 10.0 mi Calm Calm - N/A   Scattered Clouds
10:15 AM 33.6 °F 26.2 °F 19.0 °F 55% 29.89 in 10.0 mi West 9.2 mph - N/A   Mostly Cloudy
10:35 AM 33.8 °F - 18.5 °F 54% 29.89 in 10.0 mi Calm Calm - N/A   Overcast
10:55 AM 34.0 °F - 17.6 °F 51% 29.88 in 10.0 mi Calm Calm - N/A   Overcast
11:15 AM 34.2 °F - 17.1 °F 50% 29.87 in 10.0 mi Calm Calm - N/A   Overcast
11:35 AM 34.9 °F - 18.1 °F 51% 29.85 in 10.0 mi Calm Calm - N/A   Overcast
11:55 AM 35.1 °F - 18.3 °F 51% 29.84 in 10.0 mi Calm Calm - N/A   Overcast
12:15 PM 35.8 °F - 19.0 °F 51% 29.84 in 10.0 mi Calm Calm - N/A   Overcast
12:35 PM 36.1 °F - 19.0 °F 50% 29.82 in 10.0 mi Calm Calm - N/A   Overcast
12:55 PM 36.7 °F - 20.1 °F 51% 29.81 in 10.0 mi Calm Calm - N/A   Overcast
1:15 PM 36.1 °F - 19.9 °F 52% 29.80 in 10.0 mi Calm Calm - N/A   Overcast
1:35 PM 36.7 °F - 21.4 °F 54% 29.80 in 10.0 mi Calm Calm - N/A   Overcast
1:55 PM 36.9 °F - 22.3 °F 56% 29.80 in 10.0 mi Calm Calm - N/A   Overcast
2:15 PM 36.9 °F - 22.3 °F 56% 29.80 in 10.0 mi Calm Calm - N/A   Overcast
2:35 PM 37.0 °F 27.4 °F 21.4 °F 53% 29.80 in 10.0 mi West 17.3 mph 21.9 mph N/A   Overcast
2:55 PM 37.2 °F 29.1 °F 21.0 °F 52% 29.80 in 10.0 mi West 12.7 mph 16.1 mph N/A   Overcast
3:15 PM 36.5 °F 27.8 °F 20.8 °F 53% 29.81 in 10.0 mi West 13.8 mph 19.6 mph N/A   Overcast
3:35 PM 36.7 °F - 21.0 °F 53% 29.80 in 10.0 mi Calm Calm - N/A   Overcast
3:55 PM 36.1 °F - 21.2 °F 55% 29.81 in 10.0 mi Calm Calm - N/A   Overcast
4:15 PM 35.6 °F - 22.3 °F 58% 29.82 in 10.0 mi Calm Calm - N/A   Overcast
4:35 PM 35.2 °F - 22.3 °F 59% 29.82 in 10.0 mi Calm Calm - N/A   Overcast
4:55 PM 34.9 °F 24.9 °F 20.7 °F 56% 29.83 in 10.0 mi West 16.1 mph 20.7 mph N/A   Overcast
5:15 PM 34.5 °F 25.7 °F 20.1 °F 56% 29.84 in 10.0 mi WSW 12.7 mph - N/A   Overcast
5:35 PM 33.8 °F 23.9 °F 19.8 °F 56% 29.85 in 10.0 mi West 15.0 mph - N/A   Overcast
5:55 PM 33.1 °F - 19.0 °F 56% 29.85 in 10.0 mi Calm Calm - N/A   Overcast
6:15 PM 32.4 °F 24.0 °F 19.2 °F 58% 29.87 in 7.0 mi West 10.4 mph 24.2 mph N/A Snow Light Snow
6:35 PM 32.0 °F 22.5 °F 19.8 °F 61% 29.88 in 7.0 mi West 12.7 mph - N/A Snow Light Snow
6:55 PM 32.0 °F 24.2 °F 19.4 °F 60% 29.89 in 7.0 mi West 9.2 mph 29.9 mph N/A Snow Light Snow
7:15 PM 32.0 °F 21.2 °F 17.6 °F 55% 29.89 in 10.0 mi West 16.1 mph 25.3 mph N/A Snow Light Snow
7:35 PM 31.8 °F 20.2 °F 16.3 °F 53% 29.90 in 10.0 mi West 18.4 mph 25.3 mph N/A Snow Light Snow
7:55 PM 31.6 °F 19.7 °F 15.3 °F 51% 29.90 in 10.0 mi West 19.6 mph 28.8 mph N/A   Overcast
8:15 PM 31.6 °F 18.7 °F 16.0 °F 52% 29.91 in 10.0 mi West 23.0 mph 33.4 mph N/A   Overcast
8:35 PM 31.1 °F 19.3 °F 15.4 °F 52% 29.92 in 10.0 mi West 18.4 mph 27.6 mph N/A   Overcast
8:55 PM 31.3 °F 18.5 °F 14.7 °F 50% 29.93 in 10.0 mi WSW 21.9 mph 31.1 mph N/A   Overcast
9:15 PM 30.7 °F 18.1 °F 14.5 °F 51% 29.94 in 10.0 mi West 20.7 mph 27.6 mph N/A   Overcast
9:35 PM 30.4 °F 16.7 °F 13.1 °F 49% 29.95 in 10.0 mi West 24.2 mph 39.1 mph N/A   Overcast
9:55 PM 30.0 °F 16.9 °F 12.4 °F 48% 29.95 in 10.0 mi West 21.9 mph 36.8 mph N/A   Overcast
10:15 PM 29.5 °F 16.5 °F 12.4 °F 49% 29.96 in 10.0 mi West 20.7 mph 28.8 mph N/A   Overcast
10:35 PM 28.8 °F 15.5 °F 11.7 °F 49% 29.96 in 10.0 mi West 20.7 mph 27.6 mph N/A   Overcast
10:55 PM 28.2 °F 15.2 °F 12.2 °F 51% 29.96 in 10.0 mi West 19.6 mph 38.0 mph N/A   Overcast
11:15 PM 27.5 °F 13.5 °F 12.0 °F 52% 29.97 in 10.0 mi West 21.9 mph 26.5 mph N/A   Overcast
11:35 PM 27.1 °F 14.1 °F 11.3 °F 51% 29.97 in 10.0 mi WNW 18.4 mph 28.8 mph N/A   Overcast
11:55 PM 27.0 °F 12.5 °F 10.6 °F 50% 29.97 in 10.0 mi West 23.0 mph 35.7 mph N/A   Overcast